Temp
95 87 82 85 90 90 88 85 81 86 92 87 85 86 90 94 93 92 93 93 93 92 79 77 92 93 90 88 85 86 83 82 82 81 81 81 77 73 69 68 78 81 81 79
89 83 92 94 92 89 87 83 81 86 91 88 86 84 90 91 90 91 92 92 92 93 79 84 89 90 88 85 85 83 85 82 81 81 80 81 80 80 80 80 80 79 79 77
85 89 94 91 89 86 84 80 80 80 86 89 85 81 84 89 90 91 92 93 93 92 77 74 84 76 88 85 84 84 83 84 83 84 81 80 80 77 77 77 77 77 78 77
89 94 89 88 86 87 78 88 85 83 80 72 85 66 76 81 71 85 90 91 88 86 91 78 69 82 89 88 86 85 83 82 83 82 81 78 76 73 76 76 75 74 76 75
85 88 86 85 85 88 82 89 85 84 79 78 76 70 72 76 62 60 88 91 92 93 86 84 82 72 70 68 67 82 82 82 82 80 79 77 76 75 75 74 72 72 73 74
89 97 93 89 91 90 90 85 85 84 79 63 72 73 69 73 79 84 89 91 93 95 90 90 72 72 69 72 71 84 81 80 81 79 79 77 75 74 72 71 70 71 71 71
86 87 92 92 86 89 86 78 67 65 65 61 77 71 69 82 85 87 86 89 92 94 95 88 80 76 71 76 88 86 83 80 80 80 79 78 77 74 71 71 69 68 67 65
73 71 84 91 86 81 81 77 66 55 59 64 75 63 64 85 89 90 91 91 93 93 92 88 88 76 65 72 85 87 85 84 83 81 81 76 76 73 71 68 69 64 68 67
69 74 88 90 91 87 79 72 77 68 70 60 69 68 77 84 84 86 87 88 88 90 91 83 74 71 65 64 80 87 84 83 84 83 77 77 72 68 66 68 67 66 66 67
82 72 84 87 90 87 81 85 66 69 56 55 66 56 64 75 79 82 83 84 86 89 89 88 84 73 74 82 87 86 86 82 82 82 75 70 69 70 70 68 66 65 65 64
86 78 78 83 66 58 68 73 75 75 70 59 58 62 76 76 79 79 82 84 85 86 89 90 90 89 87 87 84 82 79 82 78 72 71 71 70 70 68 67 66 62 63 61
85 79 71 74 77 81 81 72 70 65 62 68 65 61 81 81 83 82 82 85 87 86 85 88 84 84 84 83 82 81 79 77 73 74 74 71 70 68 66 63 63 62 59 58
81 75 67 66 58 73 68 72 70 68 73 65 60 64 79 82 81 82 82 85 86 82 79 85 86 84 82 80 79 79 79 78 77 76 75 68 65 64 61 62 60 58 57 55
77 77 71 65 70 77 72 73 73 73 63 67 68 70 75 72 71 67 78 84 84 82 80 83 82 81 82 79 78 77 76 75 75 75 71 67 65 62 62 61 60 58 58 58
81 71 76 64 79 81 79 77 79 75 75 67 71 71 73 77 74 69 81 82 80 81 81 80 79 79 80 77 76 76 75 72 73 72 70 67 64 63 62 60 60 59 58 56
82 72 77 73 80 78 71 74 79 78 76 75 73 72 79 75 68 63 74 75 75 76 77 78 79 77 76 75 75 75 73 71 72 69 68 65 63 63 60 60 58 58 57 57
78 75 72 66 77 70 59 72 76 76 79 74 68 74 77 76 74 70 70 70 71 74 76 76 76 75 74 73 74 73 72 72 67 68 66 64 64 61 60 60 59 58 56 57
76 74 73 67 71 58 74 83 80 75 76 78 77 77 78 77 74 73 75 72 71 76 76 76 76 75 73 74 74 74 72 66 67 66 64 64 62 61 59 59 57 57 58 57
81 74 69 64 65 72 73 72 66 66 70 77 76 78 78 79 77 71 75 76 77 76 77 76 77 76 72 72 73 70 67 66 67 63 63 63 62 60 59 57 57 58 57 56
80 78 70 68 61 57 66 72 69 71 64 77 77 75 76 78 67 70 78 79 78 78 77 76 77 76 72 72 71 65 66 66 62 64 62 62 62 59 58 57 57 58 57 57
58 63 59 58 63 59 75 80 82 62 62 77 78 77 75 71 73 76 80 79 79 77 76 77 76 73 71 72 65 65 64 63 64 64 62 61 61 60 59 59 59 59 58 58
67 52 48 65 60 53 77 78 67 71 77 80 79 77 76 77 78 78 79 78 77 76 76 76 73 72 71 71 68 65 64 63 64 62 60 60 61 61 60 58 58 58 57 57
65 72 68 69 68 78 82 77 80 79 77 79 79 79 79 77 77 78 76 76 76 75 75 75 73 72 71 67 67 65 66 65 63 61 58 59 61 61 61 57 59 55 55 55
79 81 73 72 77 79 81 83 84 82 80 81 81 80 80 77 78 77 76 75 75 75 74 74 73 71 69 65 67 68 66 65 63 61 59 61 58 58 59 62 58 59 57 55
79 78 74 73 78 80 82 83 82 82 82 81 82 81 79 78 77 76 74 73 74 73 75 73 72 70 70 65 66 68 66 64 62 61 58 58 57 58 57 59 55 58 53 49
82 75 72 70 76 76 78 83 84 81 80 81 80 79 79 79 76 76 73 74 73 73 74 72 71 70 70 66 67 68 66 63 61 60 60 58 57 60 56 57 58 42 43 42
MSLP
1004.43 1003.93 1003.17 1003.47 1002.98 1003.01 1003.05 1002.79 1002.85 1002.97 1002.91 1003.26 1003.26 1003.20 1002.79 1003.07 1003.59 1004.04 1004.49 1005.08 1005.28 1006.26 1009.54 1012.70 1010.71 1010.85 1010.28 1010.64 1011.53 1012.31 1013.11 1013.63 1014.17 1014.28 1014.16 1014.05 1014.77 1015.81 1016.35 1016.28 1015.35 1014.85 1015.11 1015.76
1003.94 1003.15 1002.83 1002.92 1003.26 1003.33 1003.09 1003.09 1003.17 1003.32 1003.28 1003.34 1003.22 1003.21 1003.21 1003.65 1004.32 1004.91 1005.02 1005.01 1005.20 1006.70 1009.83 1011.18 1011.83 1009.95 1010.17 1011.36 1011.93 1012.57 1013.07 1013.53 1013.95 1014.06 1014.10 1014.22 1014.53 1014.74 1014.84 1014.53 1014.68 1014.95 1015.31 1015.65
1003.33 1002.93 1003.25 1003.38 1003.24 1003.20 1003.42 1003.96 1003.98 1004.00 1003.71 1003.47 1002.94 1003.21 1003.37 1004.47 1005.15 1005.64 1005.70 1005.73 1005.70 1006.76 1009.57 1010.85 1010.19 1010.81 1010.95 1010.61 1011.45 1012.18 1012.86 1013.35 1013.81 1013.89 1014.01 1014.14 1014.42 1014.47 1014.47 1014.58 1014.63 1014.91 1014.96 1015.15
1003.05 1003.22 1003.53 1003.42 1003.31 1003.43 1003.68 1004.41 1004.55 1004.23 1004.15 1003.70 1003.77 1004.61 1005.04 1005.99 1007.63 1005.74 1005.83 1006.10 1006.61 1007.04 1007.34 1009.13 1011.45 1011.32 1010.80 1010.16 1010.06 1011.42 1012.33 1013.17 1013.64 1013.80 1013.95 1014.12 1014.46 1014.52 1014.39 1014.37 1014.53 1014.75 1014.72 1014.82
1003.39 1003.13 1003.60 1003.39 1003.64 1004.47 1004.58 1004.67 1004.60 1004.47 1004.39 1004.36 1004.76 1005.50 1006.47 1006.91 1008.57 1009.13 1005.96 1006.05 1006.16 1006.51 1007.60 1009.07 1010.02 1011.36 1012.24 1010.85 1012.97 1011.37 1012.24 1012.97 1013.45 1013.75 1014.17 1014.19 1014.29 1014.46 1014.57 1014.87 1015.06 1015.11 1014.75 1014.76
1003.81 1003.70 1003.65 1003.92 1004.42 1004.59 1005.10 1004.79 1004.19 1004.32 1005.04 1005.61 1006.29 1005.91 1007.02 1007.06 1006.81 1006.53 1006.25 1005.94 1006.10 1006.29 1007.31 1008.35 1010.70 1010.73 1011.44 1012.67 1012.57 1012.09 1012.42 1012.98 1013.26 1013.74 1014.07 1014.27 1014.63 1014.91 1015.12 1015.26 1015.30 1015.15 1015.10 1015.17
1003.90 1004.10 1004.31 1004.90 1004.65 1005.01 1005.31 1005.39 1004.92 1004.90 1005.43 1005.65 1005.90 1006.61 1007.46 1006.83 1006.85 1006.68 1006.57 1006.45 1006.47 1006.61 1006.65 1008.15 1009.93 1010.72 1011.51 1013.28 1011.70 1012.39 1012.45 1012.63 1012.97 1013.23 1013.63 1014.04 1014.53 1015.11 1015.28 1015.08 1014.90 1015.62 1015.59 1015.27
1004.38 1004.33 1004.87 1005.21 1005.30 1005.54 1005.91 1006.77 1006.91 1006.86 1006.90 1007.07 1007.24 1008.11 1009.63 1007.59 1006.91 1006.95 1006.67 1006.65 1006.54 1006.67 1007.55 1008.52 1010.15 1012.35 1011.82 1014.92 1012.30 1012.39 1012.19 1012.34 1012.46 1013.02 1013.50 1014.21 1014.84 1015.29 1015.69 1016.07 1015.83 1015.96 1015.58 1015.51
1006.13 1005.19 1005.62 1005.71 1006.02 1006.43 1006.79 1007.65 1008.57 1008.50 1008.45 1008.78 1008.43 1009.31 1009.13 1008.30 1007.59 1007.49 1007.49 1007.44 1007.28 1007.42 1007.90 1009.66 1011.21 1011.32 1013.45 1014.05 1012.13 1011.87 1012.17 1012.28 1012.37 1012.69 1013.51 1014.16 1014.99 1015.55 1015.92 1016.23 1016.16 1016.01 1015.86 1015.77
1005.68 1005.58 1006.11 1006.53 1006.79 1007.79 1008.50 1008.69 1009.39 1009.11 1009.21 1009.09 1008.71 1009.98 1009.67 1008.68 1008.30 1008.25 1008.26 1008.29 1008.19 1008.17 1008.73 1009.57 1010.37 1012.12 1012.62 1012.16 1011.67 1012.12 1012.25 1012.41 1012.53 1012.73 1013.79 1015.06 1015.46 1015.70 1015.94 1016.15 1016.33 1016.22 1016.15 1016.11
1006.33 1006.63 1006.81 1007.51 1010.09 1011.25 1010.23 1009.37 1009.70 1009.19 1009.84 1010.19 1009.82 1010.34 1010.18 1009.80 1009.13 1008.95 1009.04 1008.97 1009.16 1009.32 1009.32 1009.74 1010.21 1010.91 1011.51 1012.02 1012.16 1012.48 1012.57 1012.73 1013.33 1014.34 1014.96 1015.38 1015.62 1015.83 1016.12 1016.38 1016.45 1016.61 1016.51 1016.46
1007.09 1007.53 1007.85 1008.75 1010.90 1010.95 1009.99 1010.21 1010.36 1010.19 1010.47 1010.48 1010.44 1010.79 1010.52 1010.08 1009.68 1009.59 1009.68 1009.47 1009.57 1010.15 1010.77 1010.73 1011.19 1011.67 1012.18 1012.55 1012.97 1013.19 1013.43 1013.85 1014.62 1014.83 1015.07 1015.59 1015.82 1016.08 1016.27 1016.65 1016.85 1016.94 1016.90 1016.73
1008.49 1008.33 1008.69 1009.97 1012.77 1012.10 1011.04 1010.61 1010.65 1011.38 1010.58 1010.40 1010.61 1010.12 1009.90 1010.23 1010.40 1010.78 1010.53 1009.92 1010.26 1011.41 1012.12 1012.08 1011.95 1012.38 1012.86 1013.35 1013.65 1013.86 1014.17 1014.52 1014.72 1015.03 1015.19 1016.07 1016.36 1016.47 1016.98 1017.21 1017.42 1017.33 1017.22 1017.08
1009.17 1009.00 1009.10 1009.33 1009.41 1009.49 1009.53 1010.10 1009.98 1010.22 1010.30 1009.91 1009.93 1009.93 1010.18 1011.27 1011.69 1012.14 1011.19 1010.57 1010.97 1011.81 1012.43 1012.65 1012.98 1013.39 1013.76 1014.07 1014.30 1014.53 1014.88 1015.36 1015.50 1015.66 1016.09 1016.50 1016.70 1017.24 1017.52 1017.69 1017.60 1017.51 1017.30 1016.99
1009.31 1009.22 1009.16 1010.01 1008.86 1008.73 1008.61 1008.93 1008.65 1008.90 1009.13 1009.66 1009.94 1010.36 1011.07 1011.61 1012.46 1012.79 1011.83 1012.01 1012.19 1013.01 1013.43 1013.58 1014.13 1014.37 1014.60 1014.79 1015.04 1015.28 1015.57 1016.16 1016.47 1016.47 1016.65 1016.95 1017.44 1017.77 1017.81 1017.82 1017.65 1017.54 1017.31 1017.15
1009.33 1009.32 1009.19 1009.49 1008.89 1009.12 1009.87 1009.99 1008.61 1008.56 1009.31 1009.81 1010.30 1010.79 1011.57 1012.53 1013.89 1016.06 1013.52 1013.73 1014.19 1014.61 1014.84 1014.75 1014.98 1015.29 1015.47 1015.60 1015.75 1015.89 1016.28 1016.76 1017.00 1017.13 1017.24 1017.75 1018.12 1018.08 1018.20 1017.98 1017.96 1017.77 1017.49 1017.28
1009.25 1009.44 1009.51 1009.31 1009.15 1009.69 1010.27 1009.14 1009.09 1009.38 1009.84 1010.53 1010.93 1011.35 1012.08 1012.95 1014.16 1015.43 1015.58 1015.72 1015.87 1015.36 1015.57 1015.67 1015.87 1016.10 1016.19 1016.29 1016.29 1016.47 1016.71 1016.99 1017.37 1017.73 1017.89 1018.29 1018.30 1018.41 1018.42 1018.32 1018.08 1017.91 1017.81 1017.48
1009.70 1010.03 1010.27 1010.13 1009.89 1009.61 1009.07 1009.42 1009.99 1010.76 1011.02 1011.27 1011.49 1011.86 1012.45 1013.02 1014.30 1015.08 1015.56 1015.50 1016.06 1016.24 1016.26 1016.40 1016.65 1016.59 1016.73 1016.84 1016.97 1016.96 1017.25 1017.57 1017.86 1018.19 1018.54 1018.65 1018.60 1018.78 1018.93 1018.59 1018.40 1018.12 1017.80 1017.57
1010.05 1010.42 1010.35 1010.50 1010.11 1009.77 1009.96 1011.63 1012.36 1013.09 1012.19 1012.13 1012.34 1012.48 1012.71 1013.29 1014.01 1015.53 1015.88 1015.86 1016.36 1016.65 1016.69 1016.85 1016.90 1016.89 1017.14 1017.47 1017.55 1017.73 1017.89 1018.13 1018.42 1018.83 1019.13 1019.01 1019.09 1019.21 1019.05 1018.98 1018.63 1018.37 1018.11 1017.79
1010.44 1010.93 1011.39 1010.99 1010.91 1010.93 1011.91 1012.60 1012.92 1012.59 1012.76 1012.95 1013.22 1013.31 1013.30 1013.71 1014.21 1015.28 1015.70 1016.15 1016.52 1016.73 1016.89 1017.08 1017.03 1017.13 1017.58 1017.92 1018.08 1018.27 1018.39 1018.62 1019.02 1019.27 1019.45 1019.48 1019.59 1019.56 1019.31 1019.17 1018.89 1018.62 1018.37 1018.03
1011.63 1012.58 1012.07 1011.87 1011.54 1013.03 1012.14 1012.21 1012.05 1012.45 1014.04 1013.67 1013.65 1013.73 1014.12 1014.65 1015.41 1015.76 1015.93 1016.32 1016.54 1016.88 1017.07 1017.25 1017.28 1017.43 1017.99 1018.29 1018.59 1018.77 1018.91 1019.25 1019.49 1019.81 1019.75 1019.81 1019.97 1019.74 1019.63 1019.32 1018.94 1018.69 1018.44 1018.14
1010.85 1012.37 1012.66 1011.62 1011.85 1013.05 1013.10 1012.55 1012.98 1013.73 1013.71 1013.39 1013.62 1014.20 1014.64 1015.21 1015.49 1015.83 1016.13 1016.37 1016.76 1017.07 1017.29 1017.43 1017.52 1017.69 1018.28 1018.73 1018.99 1019.12 1019.39 1019.73 1019.99 1020.21 1020.13 1020.09 1020.10 1019.95 1019.65 1019.46 1019.19 1018.93 1018.81 1018.45
1010.62 1011.20 1011.44 1011.53 1011.69 1012.04 1012.21 1012.71 1013.13 1013.55 1013.69 1013.61 1014.00 1014.60 1014.95 1015.39 1015.73 1016.09 1016.41 1016.69 1017.10 1017.34 1017.51 1017.71 1017.83 1017.97 1018.53 1019.04 1019.34 1019.51 1019.67 1019.95 1020.38 1020.49 1020.48 1020.25 1020.07 1019.99 1019.63 1019.48 1019.25 1019.24 1019.14 1019.00
1009.85 1010.37 1010.99 1011.37 1011.43 1011.57 1011.93 1012.22 1012.71 1013.25 1013.75 1014.07 1014.57 1014.99 1015.31 1015.76 1016.13 1016.43 1016.77 1017.19 1017.49 1017.62 1017.68 1017.92 1018.07 1018.34 1018.68 1019.25 1019.51 1019.72 1019.95 1020.36 1020.48 1020.51 1020.51 1020.37 1020.34 1020.35 1020.01 1019.69 1019.54 1019.48 1019.58 1019.56
1010.09 1010.79 1011.09 1011.33 1011.33 1011.49 1011.69 1012.07 1012.74 1013.33 1013.95 1014.43 1014.85 1015.29 1015.78 1016.23 1016.57 1016.92 1017.31 1017.69 1017.87 1017.97 1017.85 1018.10 1018.37 1018.54 1018.75 1019.27 1019.55 1019.87 1020.23 1020.71 1020.60 1020.67 1020.62 1020.59 1020.43 1020.35 1020.25 1020.27 1020.41 1020.11 1020.53 1020.52
1010.01 1010.70 1010.84 1011.17 1011.89 1012.23 1012.26 1012.45 1012.92 1013.48 1013.98 1014.47 1014.89 1015.62 1016.23 1016.68 1017.15 1017.53 1017.95 1018.19 1018.31 1018.15 1018.11 1018.36 1018.55 1018.73 1019.01 1019.46 1019.69 1020.00 1020.52 1020.93 1020.88 1020.78 1020.68 1020.71 1020.57 1020.42 1020.41 1020.39 1020.46 1020.60 1020.67 1020.67
Wind_Speed
15 14 12 4 10 10 8 8 13 11 6 5 12 16 3 4 8 7 7 7 4 1 22 18 9 8 10 10 8 5 6 6 3 4 4 4 4 4 8 9 13 3 1 4
16 12 11 3 6 11 9 16 13 9 15 9 12 13 9 10 7 5 9 3 5 1 22 14 3 9 9 9 7 7 3 6 5 4 3 2 2 2 2 1 2 4 4 4
12 11 1 6 9 8 11 8 12 15 14 16 13 13 3 6 8 5 2 9 6 5 20 18 21 8 12 12 10 7 5 3 4 3 3 2 3 3 4 2 3 3 2 2
9 8 4 7 10 4 5 9 13 15 12 12 2 10 14 9 24 10 6 6 4 2 13 19 2 20 10 13 15 11 8 5 5 5 3 3 2 4 2 2 3 4 5 4
3 5 1 8 9 7 13 15 14 12 12 15 11 9 8 15 13 19 7 3 4 6 15 13 19 23 30 22 25 6 9 6 4 4 2 2 4 4 4 5 6 5 4 3
14 6 1 12 4 3 12 20 17 13 7 4 15 9 10 6 3 5 11 8 6 7 12 6 11 14 7 12 16 11 9 7 5 5 5 3 3 3 3 4 4 3 5 5
6 8 2 6 8 2 8 11 7 3 6 6 10 8 8 9 11 11 9 10 10 11 12 14 10 13 11 15 7 8 9 7 7 6 5 4 0 3 6 4 4 6 4 3
5 10 7 5 4 8 9 10 8 11 10 11 16 9 9 12 10 7 8 11 11 15 16 12 21 18 26 35 5 3 3 3 4 5 2 6 3 3 4 5 5 3 5 6
7 10 11 2 5 2 6 8 16 9 2 2 7 15 15 5 6 8 14 16 15 13 8 19 14 15 14 17 14 2 5 4 3 2 6 2 6 6 4 7 5 5 6 7
8 4 4 8 1 13 6 10 5 6 3 8 12 7 5 11 15 15 15 14 14 13 18 15 12 12 12 6 5 5 4 7 6 2 8 7 5 4 4 5 8 8 7 8
7 4 0 3 8 6 24 1 6 4 9 9 8 7 18 10 10 10 9 13 12 14 14 14 14 12 15 13 11 8 8 10 13 11 7 6 6 5 8 7 8 7 8 10
4 4 9 3 12 7 13 5 7 4 6 8 10 4 11 6 7 8 10 12 13 11 11 11 9 13 13 16 16 16 16 12 10 4 5 5 7 7 7 8 7 9 8 8
9 2 7 17 17 8 4 1 2 13 3 6 7 4 2 12 10 15 7 10 14 21 13 13 15 15 14 13 13 13 12 10 11 11 8 10 7 7 10 8 9 7 8 8
2 6 10 11 3 5 7 18 16 8 3 7 10 13 13 15 13 18 22 12 15 12 8 16 14 13 13 12 12 12 11 13 11 9 11 9 10 9 10 9 8 8 8 8
3 6 11 20 19 12 9 18 9 10 10 7 10 14 15 13 3 10 4 16 20 18 17 15 13 13 14 12 13 11 10 11 10 10 10 10 11 12 11 10 9 9 7 6
3 5 8 9 15 9 17 23 15 7 5 8 13 10 12 13 20 26 23 20 19 18 15 15 16 15 13 13 11 10 9 8 8 10 9 12 11 8 7 8 10 8 9 9
1 5 8 10 8 2 4 9 8 9 10 11 11 13 15 13 13 17 18 17 13 12 14 15 15 13 10 12 10 9 7 7 8 9 11 11 8 9 10 9 9 8 8 7
3 5 6 10 13 14 7 7 12 9 7 10 12 8 4 12 14 14 11 9 7 9 14 12 12 11 10 11 10 7 9 7 8 9 11 10 9 9 8 8 8 7 6 5
7 7 7 8 12 11 10 15 14 16 9 12 9 12 18 10 13 10 4 5 3 9 9 10 10 10 10 10 8 10 8 8 9 10 9 8 11 8 7 8 8 8 7 6
5 5 7 9 10 14 5 3 9 14 3 9 8 6 6 10 6 8 9 9 8 9 9 10 10 9 10 8 9 7 7 7 9 9 6 9 8 8 6 5 5 6 4 5
3 7 4 10 2 9 15 3 7 8 4 6 8 9 10 8 7 5 7 7 9 10 11 10 10 8 9 8 7 7 7 9 8 8 5 7 8 7 8 7 5 5 5 4
7 6 5 10 1 4 5 5 6 4 5 3 4 7 7 4 3 6 7 9 11 10 12 11 9 7 8 8 8 7 7 8 10 5 5 6 6 5 4 6 5 6 7 4
3 2 4 2 4 3 4 8 5 4 5 5 5 6 3 1 8 8 9 10 10 10 8 10 9 8 7 7 6 7 7 9 8 5 5 3 6 5 7 4 5 4 5 6
7 8 2 6 6 4 5 1 1 2 1 6 5 2 2 7 5 9 9 9 8 9 8 9 8 8 7 6 6 7 10 9 5 5 5 3 4 5 7 7 4 5 5 5
4 4 2 3 7 7 4 5 8 7 6 1 3 4 6 5 8 9 9 9 8 8 7 7 7 5 7 6 6 7 10 8 6 6 6 4 2 4 2 5 5 5 5 4
4 6 4 3 8 4 4 4 7 3 3 4 5 4 4 4 8 9 8 7 7 7 8 8 7 7 8 6 7 7 9 6 7 6 4 4 3 5 4 1 2 5 4 4
Wind_Direction
208 253 259 357 312 339 307 307 29 12 19 331 338 298 291 326 25 341 360 308 305 166 103 166 212 127 110 116 131 146 144 135 175 220 236 227 144 162 199 215 220 85 3 7
241 234 288 180 351 326 300 343 26 342 338 317 301 303 318 66 49 17 343 305 274 172 116 176 16 141 147 147 143 144 175 160 176 235 231 39 10 319 327 347 93 200 171 222
271 273 246 321 313 268 41 320 349 321 318 295 299 258 183 91 118 109 29 11 1 15 158 154 202 98 197 155 148 158 160 171 183 260 319 193 242 237 248 93 219 110 184 266
265 92 339 278 272 28 68 16 317 306 311 302 232 53 81 48 14 343 132 138 97 63 264 92 125 217 180 187 144 140 148 157 200 171 266 194 335 280 321 298 49 17 351 334
261 44 270 255 77 12 334 324 295 282 284 284 27 318 85 74 76 255 121 102 174 220 97 125 204 61 356 76 332 140 132 161 133 134 227 305 246 353 0 15 16 320 279 16
267 35 252 40 7 295 354 310 298 287 321 78 263 272 119 136 89 24 22 15 354 304 120 198 112 107 126 156 214 137 148 146 154 186 208 223 307 346 339 301 290 344 356 352
181 203 176 353 307 89 289 334 314 317 211 150 247 56 352 53 32 22 23 359 341 323 309 126 125 155 184 214 70 133 136 162 180 196 208 204 153 346 276 297 48 349 331 323
335 134 40 136 346 339 10 357 360 331 359 330 15 52 359 347 52 3 359 351 354 2 25 28 18 44 45 347 70 40 181 181 142 171 195 62 38 14 350 359 5 312 320 339
160 226 195 40 324 26 57 352 16 318 137 259 246 111 208 353 20 4 6 359 2 8 356 71 64 75 96 196 261 129 39 16 3 50 102 171 61 31 12 3 327 346 332 330
342 161 339 117 247 53 357 358 68 283 21 327 351 56 344 15 20 24 17 355 10 20 41 22 103 144 188 228 4 68 34 12 15 31 49 70 75 36 357 356 349 336 359 347
320 338 324 57 76 45 294 253 304 341 19 332 326 46 4 340 3 41 6 42 16 5 4 21 43 35 41 40 40 39 22 1 47 58 63 55 23 6 24 352 358 17 351 353
32 349 324 126 113 8 6 13 359 2 6 329 305 92 8 35 9 58 22 34 35 30 23 352 35 63 39 32 28 26 19 59 49 54 49 31 35 21 7 32 12 12 359 345
355 233 269 122 24 271 226 273 225 264 218 322 292 354 331 59 26 10 351 29 32 49 34 16 19 24 24 31 26 23 21 20 13 8 12 53 38 24 50 22 11 358 359 353
353 286 283 301 241 171 195 194 211 225 264 308 330 339 36 30 40 41 316 38 55 70 31 33 23 15 8 24 19 15 26 26 21 1 50 32 38 46 28 8 353 342 330 324
254 258 272 7 315 300 336 335 335 316 321 338 343 349 12 349 45 194 7 41 42 23 21 23 11 13 7 13 13 20 34 42 9 13 25 29 36 28 6 359 359 4 358 357
150 283 293 307 301 23 21 294 290 325 27 339 1 334 41 28 54 34 44 45 32 20 9 11 8 8 358 12 9 16 44 34 13 21 19 40 24 358 26 358 14 359 358 359
231 310 306 289 316 109 259 258 357 7 6 20 346 359 44 346 78 61 49 30 0 11 9 2 5 356 23 7 13 14 38 35 46 15 41 25 343 30 17 359 357 7 1 346
297 284 291 282 293 290 40 24 56 16 16 350 343 29 12 78 80 78 58 46 312 359 359 360 357 358 27 10 12 17 39 46 36 36 28 353 32 25 5 350 11 9 350 5
213 275 260 271 279 298 83 32 46 353 347 36 14 19 18 86 97 68 93 125 22 12 356 13 350 6 35 16 8 48 40 41 25 42 15 16 30 15 1 6 349 11 351 7
246 235 284 281 289 284 84 97 152 227 279 35 28 27 359 353 34 66 48 42 19 16 19 8 3 13 42 18 42 44 30 28 50 36 0 36 26 2 16 343 11 354 1 14
11 334 300 291 292 59 335 52 246 270 67 3 7 34 34 54 56 62 45 19 30 18 23 6 14 42 47 15 73 41 34 60 46 22 33 44 20 358 2 352 343 21 352 31
170 131 189 242 130 49 224 351 20 39 327 340 27 53 83 71 69 46 15 19 27 13 12 12 10 59 55 34 24 46 27 64 49 16 37 24 25 356 345 343 8 11 354 21
253 22 327 35 36 52 4 74 87 50 318 29 46 66 50 48 38 10 16 27 23 19 2 22 6 31 64 60 34 28 34 46 32 19 19 24 5 6 338 23 7 37 12 20
299 147 333 356 358 333 356 33 332 136 10 58 82 87 43 35 11 19 20 28 7 18 353 26 6 21 57 73 30 31 54 49 3 5 345 16 14 354 341 16 8 35 19 24
31 129 231 254 261 269 302 57 69 100 91 53 96 57 56 32 24 21 25 20 10 3 351 33 3 34 45 88 52 32 61 32 357 356 342 44 358 327 39 59 16 14 52 22
316 29 327 310 56 0 348 69 129 159 175 220 152 139 98 23 29 26 24 12 359 343 14 23 13 23 37 65 59 43 56 50 3 354 47 15 338 322 73 77 133 52 70 21